Track SAC-D (AQUARIUS) now! 10-day predictions SAC-D (AQUARIUS) is classified as:
1 37673U 11024A 25199.81610942 .00000721 00000-0 10763-3 0 9991 2 37673 97.9874 211.6012 0002039 97.8787 74.8521 14.77766058758531